CO-58
1 28895U 05043F 09283.21775713 -.00000043 00000-0 55959-6 0 04171
2 28895 098.0403 170.5063 0017697 351.5945 008.4942 14.59801165210518
FALCON
1 30776U 07006E 09284.92286384 .00000380 00000-0 30511-4 0 06926
2 30776 035.4328 111.1153 0001490 264.2101 095.8446 15.03325586142677
MAST
1 31126U 07012K 09284.78662288 .00000017 00000-0 14727-4 0 7062
2 31126 097.9760 334.1711 0093592 278.1118 080.9476 14.53521384131970
CAPE1
1 31130U 07012P 09284.66473203 -.00000061 00000-0 -29633-5 0 07188
2 31130 097.9771 331.9806 0101562 284.7794 074.2165 14.52091961131598
COMPASS
1 32787U 08021E 09285.20568781 .00000165 00000-0 27683-4 0 4873
2 32787 097.9271 347.9635 0016035 016.7093 343.4646 14.81667885 78775
AAUSAT2
1 32788U 08021F 09285.70397222 .00000306 00000-0 45458-4 0 4821
2 32788 097.9304 348.5367 0016123 016.0220 344.1500 14.81795549 78850
DO-64
1 32789U 08021G 09285.72546152 .00000118 00000-0 21716-4 0 4981
2 32789 097.9328 348.7982 0015951 013.7671 346.3968 14.81812304 78855
CO-66
1 32791U 08021J 09285.19478266 -.00000055 00000-0 -25153-6 0 4797
2 32791 097.9318 347.9846 0016564 014.1871 345.9794 14.81487750 78737
RS-30
1 32953U 08025A 09284.81913547 .00000010 00000-0 00000 0 0 4263
2 32953 082.5052 184.0982 0018407 288.2389 071.6690 12.43003059 62888
TACSAT-3
1 35001U 09028A 09284.94535051 .00002355 00000-0 64303-4 0 01215
2 35001 040.4575 262.2243 0025218 310.0168 049.8437 15.39300082022341
PHARMSAT
1 35002U 09028B 09284.35475206 .00002016 00000-0 54525-4 0 01204
2 35002 040.4691 264.9235 0028001 309.1968 050.6361 15.40039193022251
HAWKSAT1
1 35003U 09028C 09284.94888842 .00004242 00000-0 10514-3 0 01194
2 35003 040.4638 260.5028 0028265 317.1930 042.6719 15.40879269022361
CP6
1 35004U 09028D 09284.94661405 .00004780 00000-0 11741-3 0 01133
2 35004 040.4640 260.4906 0027762 317.5549 042.3133 15.40971510022358
AEROCUB3
1 35005U 09028E 09284.96457133 .00004768 00000-0 11799-3 0 01226
2 35005 040.4760 260.7899 0027838 314.4920 045.3654 15.40751180022359
DRAGNSAT
1 35690U 09038B 09284.80378540 .00032661 00000-0 14570-3 0 00765
2 35690 051.6416 063.5471 0004045 355.4022 004.6973 15.83939927011601
POLLUX
1 35693U 09038E 09285.77832344 .00030924 00000-0 14289-3 0 736
2 35693 051.6402 058.8149 0003511 306.2170 053.8655 15.83225810 11728
CASTOR
1 35694U 09038F 09284.80289517 .00014690 00000-0 75197-4 0 00703
2 35694 051.6406 064.3194 0003314 304.6725 055.3981 15.81593859011564
METEOR-M
1 35865U 09049A 09284.86286414 .00000176 00000-0 10000-3 0 00237
2 35865 098.7970 334.9699 0003006 018.0496 342.0763 14.21827135003438
STERKH-2
1 35866U 09049B 09284.85490013 .00000178 00000-0 10000-3 0 00264
2 35866 098.7970 334.9841 0003782 011.9362 348.1881 14.22296629003430
FREGAT-I
1 35867U 09049C 09284.84547142 .00002265 00000-0 10000-3 0 360
2 35867 097.3705 334.4703 0009498 195.7614 164.3227 15.22724818 3670
SUMBDILA
1 35870U 09049F 09285.78893583 .00000348 00000-0 17834-4 0 735
2 35870 097.3691 335.3867 0011018 199.6753 296.9377 15.22806507 3817
